| time (UTC) | temp C | wind direction | speed KPH | gust KPH | rain 1hr cm | rain 24hr cm | rain mn cm | humidity % | barometer mb |
| 20260507060617 | 7 | 301 | 3.2 | 8.0 | 0.00 | 0.13 | 0.03 | 86 | 1013.6 |
| 20260507060112 | 7 | 356 | 3.2 | 8.0 | 0.00 | 0.13 | 0.03 | 86 | 1013.4 |
| 20260507055600 | 7 | 338 | 3.2 | 8.0 | 0.00 | 0.13 | 0.03 | 86 | 1013.5 |
| 20260507055056 | 7 | 340 | 3.2 | 8.0 | 0.00 | 0.13 | 0.03 | 86 | 1013.5 |
| 20260507054944 | 7 | 332 | 1.6 | 6.4 | 0.00 | 0.15 | 0.03 | 87 | 1013.4 |
| 20260507054643 | 7 | 323 | 3.2 | 8.0 | 0.00 | 0.13 | 0.03 | 87 | 1013.4 |
| 20260507053630 | 7 | 346 | 1.6 | 4.8 | 0.00 | 0.15 | 0.03 | 88 | 1013.4 |
| 20260507053521 | 7 | 6 | 1.6 | 4.8 | 0.00 | 0.15 | 0.03 | 88 | 1013.4 |
| 20260507052913 | 7 | 22 | 1.6 | 6.4 | 0.00 | 0.15 | 0.03 | 88 | 1013.3 |
| 20260507052707 | 7 | 278 | 1.6 | 4.8 | 0.00 | 0.15 | 0.03 | 88 | 1013.4 |
| 20260507051558 | 7 | 309 | 1.6 | 6.4 | 0.00 | 0.15 | 0.03 | 88 | 1013.2 |
| 20260507051151 | 7 | 328 | 1.6 | 4.8 | 0.00 | 0.15 | 0.03 | 88 | 1013.1 |
| 20260507050638 | 7 | 328 | 1.6 | 6.4 | 0.00 | 0.15 | 0.03 | 88 | 1013.0 |
| 20260507050131 | 7 | 278 | 0.0 | 6.4 | 0.00 | 0.15 | 0.03 | 88 | 1013.0 |
| 20260507045623 | 7 | 310 | 0.0 | 0.0 | 0.00 | 0.15 | 0.03 | 88 | 1013.0 |
| 20260507045115 | 7 | 310 | 1.6 | 6.4 | 0.00 | 0.15 | 0.03 | 87 | 1012.9 |
| 20260507045007 | 7 | 324 | 1.6 | 6.4 | 0.00 | 0.15 | 0.03 | 87 | 1012.8 |
| 20260507044102 | 7 | 340 | 1.6 | 6.4 | 0.00 | 0.15 | 0.03 | 87 | 1012.8 |
| 20260507043951 | 7 | 334 | 1.6 | 8.0 | 0.00 | 0.15 | 0.03 | 87 | 1012.7 |
| 20260507043146 | 7 | 318 | 1.6 | 8.0 | 0.03 | 0.15 | 0.03 | 87 | 1012.7 |
| 20260507042638 | 7 | 345 | 1.6 | 8.0 | 0.03 | 0.15 | 0.03 | 87 | 1012.6 |
| 20260507042427 | 7 | 343 | 1.6 | 6.4 | 0.03 | 0.15 | 0.03 | 87 | 1012.6 |
| 20260507042129 | 7 | 330 | 1.6 | 6.4 | 0.03 | 0.15 | 0.03 | 87 | 1012.6 |
| 20260507041118 | 7 | 331 | 1.6 | 4.8 | 0.03 | 0.15 | 0.03 | 87 | 1012.5 |
| 20260507040614 | 7 | 320 | 0.0 | 3.2 | 0.03 | 0.15 | 0.03 | 87 | 1012.5 |
| 20260507040108 | 7 | 332 | 0.0 | 3.2 | 0.03 | 0.15 | 0.03 | 87 | 1012.4 |
| 20260507035858 | 7 | 313 | 0.0 | 3.2 | 0.03 | 0.15 | 0.03 | 87 | 1012.3 |
| 20260507035050 | 8 | 334 | 0.0 | 1.6 | 0.03 | 0.15 | 0.03 | 86 | 1012.3 |
| 20260507034546 | 8 | 332 | 1.6 | 6.4 | 0.03 | 0.15 | 0.03 | 86 | 1012.2 |
| 20260507034136 | 8 | 337 | 1.6 | 6.4 | 0.03 | 0.15 | 0.03 | 86 | 1012.3 |
| 20260507033629 | 8 | 341 | 1.6 | 6.4 | 0.00 | 0.15 | 0.00 | 86 | 1012.3 |
| 20260507033121 | 8 | 341 | 1.6 | 4.8 | 0.00 | 0.15 | 0.00 | 86 | 1012.3 |
| 20260507032914 | 8 | 347 | 1.6 | 6.4 | 0.00 | 0.15 | 0.00 | 86 | 1012.3 |
| 20260507032110 | 8 | 341 | 1.6 | 6.4 | 0.00 | 0.15 | 0.00 | 86 | 1012.2 |
| 20260507031601 | 8 | 349 | 1.6 | 6.4 | 0.00 | 0.15 | 0.00 | 86 | 1012.3 |
| 20260507031051 | 8 | 344 | 0.0 | 4.8 | 0.00 | 0.15 | 0.00 | 86 | 1012.3 |
| 20260507030543 | 8 | 321 | 0.0 | 4.8 | 0.00 | 0.15 | 0.00 | 86 | 1012.2 |
| 20260507030134 | 8 | 339 | 1.6 | 4.8 | 0.00 | 0.15 | 0.00 | 86 | 1012.1 |
| 20260507025929 | 8 | 342 | 1.6 | 8.0 | 0.00 | 0.15 | 0.00 | 86 | 1012.1 |
| 20260507025122 | 8 | 356 | 1.6 | 8.0 | 0.00 | 0.15 | 0.00 | 86 | 1012.2 |
| 20260507024612 | 8 | 304 | 1.6 | 6.4 | 0.00 | 0.15 | 0.00 | 87 | 1012.1 |
| 20260507024359 | 8 | 326 | 0.0 | 3.2 | 0.00 | 0.15 | 0.00 | 88 | 1012.0 |
| 20260507024101 | 8 | 336 | 0.0 | 6.4 | 0.00 | 0.15 | 0.00 | 87 | 1012.1 |
| 20260507023048 | 8 | 306 | 0.0 | 3.2 | 0.00 | 0.15 | 0.00 | 88 | 1012.0 |
| 20260507022840 | 8 | 337 | 0.0 | 4.8 | 0.00 | 0.15 | 0.00 | 88 | 1012.0 |
| 20260507022133 | 8 | 318 | 0.0 | 4.8 | 0.00 | 0.15 | 0.00 | 89 | 1011.9 |
| 20260507021630 | 8 | 304 | 0.0 | 3.2 | 0.00 | 0.15 | 0.00 | 89 | 1011.9 |
| 20260507021120 | 8 | 291 | 0.0 | 4.8 | 0.00 | 0.15 | 0.00 | 89 | 1011.9 |
| 20260507020611 | 8 | 296 | 0.0 | 4.8 | 0.00 | 0.15 | 0.00 | 89 | 1011.9 |
| 20260507020108 | 8 | 328 | 0.0 | 0.0 | 0.00 | 0.15 | 0.00 | 89 | 1011.8 |
| 20260507015553 | 8 | 328 | 0.0 | 0.0 | 0.00 | 0.15 | 0.00 | 89 | 1011.8 |
| 20260507015342 | 8 | 328 | 0.0 | 0.0 | 0.00 | 0.15 | 0.00 | 89 | 1011.7 |
| 20260507015037 | 8 | 328 | 0.0 | 0.0 | 0.00 | 0.15 | 0.00 | 89 | 1011.8 |
| 20260507014631 | 8 | 328 | 0.0 | 0.0 | 0.00 | 0.15 | 0.00 | 89 | 1011.7 |
| 20260507013626 | 8 | 328 | 0.0 | 0.0 | 0.00 | 0.15 | 0.00 | 89 | 1011.7 |
| 20260507013131 | 8 | 328 | 0.0 | 0.0 | 0.00 | 0.15 | 0.00 | 89 | 1011.8 |
| 20260507012612 | 8 | 328 | 0.0 | 0.0 | 0.00 | 0.15 | 0.00 | 89 | 1011.7 |
| 20260507012408 | 8 | 328 | 0.0 | 0.0 | 0.00 | 0.15 | 0.00 | 88 | 1011.7 |
| 20260507011600 | 8 | 328 | 0.0 | 0.0 | 0.00 | 0.15 | 0.00 | 88 | 1011.7 |
| 20260507011052 | 8 | 328 | 0.0 | 0.0 | 0.00 | 0.15 | 0.00 | 89 | 1011.6 |
| 20260507010542 | 8 | 328 | 0.0 | 0.0 | 0.00 | 0.15 | 0.00 | 89 | 1011.6 |
| 20260507010352 | 8 | 328 | 0.0 | 0.0 | 0.00 | 0.15 | 0.00 | 89 | 1011.5 |
| 20260507005832 | 8 | 328 | 0.0 | 0.0 | 0.00 | 0.15 | 0.00 | 88 | 1011.6 |
| 20260507005325 | 8 | 328 | 0.0 | 0.0 | 0.00 | 0.18 | 0.00 | 88 | 1011.5 |
| 20260507004614 | 8 | 328 | 0.0 | 0.0 | 0.00 | 0.18 | 0.00 | 88 | 1011.5 |
| 20260507004108 | 8 | 328 | 0.0 | 0.0 | 0.00 | 0.18 | 0.00 | 89 | 1011.4 |
| 20260507003604 | 8 | 328 | 0.0 | 0.0 | 0.00 | 0.18 | 0.00 | 89 | 1011.5 |
| 20260507003056 | 8 | 328 | 0.0 | 0.0 | 0.00 | 0.18 | 0.00 | 89 | 1011.5 |
| 20260507002551 | 8 | 328 | 0.0 | 0.0 | 0.00 | 0.18 | 0.00 | 88 | 1011.5 |
| 20260507002045 | 8 | 328 | 0.0 | 0.0 | 0.00 | 0.18 | 0.00 | 88 | 1011.4 |
| 20260507001537 | 8 | 328 | 0.0 | 0.0 | 0.00 | 0.18 | 0.00 | 88 | 1011.3 |
| 20260507001045 | 8 | 301 | 0.0 | 0.0 | 0.00 | 0.18 | 0.00 | 89 | 1011.3 |
| 20260507000522 | 8 | 301 | 0.0 | 0.0 | 0.00 | 0.18 | 0.00 | 88 | 1011.3 |
| 20260507000019 | 8 | 301 | 0.0 | 0.0 | 0.00 | 0.18 | 0.00 | 88 | 1011.3 |
| 20260506235512 | 8 | 301 | 0.0 | 0.0 | 0.00 | 0.18 | 0.00 | 88 | 1011.4 |
| 20260506235100 | 8 | 301 | 0.0 | 0.0 | 0.00 | 0.20 | 0.00 | 88 | 1011.3 |
| 20260506234551 | 8 | 301 | 0.0 | 0.0 | 0.00 | 0.20 | 0.00 | 88 | 1011.4 |
| 20260506234042 | 8 | 301 | 0.0 | 0.0 | 0.00 | 0.20 | 0.00 | 88 | 1011.3 |
| 20260506233537 | 8 | 301 | 0.0 | 0.0 | 0.00 | 0.20 | 0.00 | 88 | 1011.3 |
| 20260506233034 | 8 | 301 | 0.0 | 0.0 | 0.00 | 0.20 | 0.00 | 88 | 1011.3 |
| 20260506232820 | 8 | 305 | 0.0 | 0.0 | 0.00 | 0.20 | 0.00 | 88 | 1011.2 |
| 20260506232620 | 8 | 301 | 0.0 | 0.0 | 0.00 | 0.20 | 0.00 | 88 | 1011.2 |
| 20260506231510 | 8 | 316 | 0.0 | 0.0 | 0.00 | 0.20 | 0.00 | 88 | 1011.2 |
| 20260506231004 | 8 | 300 | 0.0 | 1.6 | 0.00 | 0.20 | 0.00 | 88 | 1011.3 |
| 20260506230552 | 8 | 311 | 0.0 | 1.6 | 0.00 | 0.23 | 0.00 | 88 | 1011.1 |
| 20260506230359 | 8 | 311 | 0.0 | 1.6 | 0.00 | 0.23 | 0.00 | 87 | 1011.1 |
| 20260506225542 | 8 | 314 | 0.0 | 3.2 | 0.00 | 0.23 | 0.00 | 87 | 1011.1 |
| 20260506225034 | 8 | 303 | 0.0 | 4.8 | 0.00 | 0.23 | 0.00 | 87 | 1011.0 |
| 20260506224829 | 8 | 304 | 0.0 | 4.8 | 0.00 | 0.23 | 0.00 | 86 | 1011.0 |
| 20260506224023 | 8 | 313 | 0.0 | 0.0 | 0.00 | 0.23 | 0.00 | 86 | 1011.0 |
| 20260506223514 | 8 | 326 | 0.0 | 0.0 | 0.00 | 0.23 | 0.00 | 86 | 1010.9 |
| 20260506223008 | 8 | 326 | 0.0 | 0.0 | 0.00 | 0.23 | 0.00 | 86 | 1010.9 |
| 20260506222502 | 8 | 320 | 0.0 | 0.0 | 0.00 | 0.23 | 0.00 | 85 | 1010.9 |
| 20260506222256 | 8 | 320 | 0.0 | 3.2 | 0.00 | 0.23 | 0.00 | 85 | 1011.0 |
| 20260506221848 | 8 | 320 | 0.0 | 3.2 | 0.03 | 0.23 | 0.00 | 85 | 1010.9 |
| 20260506221339 | 8 | 326 | 0.0 | 3.2 | 0.03 | 0.23 | 0.00 | 85 | 1010.9 |
| 20260506220534 | 8 | 331 | 1.6 | 4.8 | 0.03 | 0.23 | 0.00 | 85 | 1010.9 |
| 20260506220027 | 8 | 343 | 0.0 | 4.8 | 0.03 | 0.23 | 0.23 | 85 | 1010.8 |
| 20260506215520 | 8 | 334 | 0.0 | 6.4 | 0.03 | 0.23 | 0.23 | 85 | 1010.8 |
| 20260506215011 | 8 | 328 | 1.6 | 6.4 | 0.03 | 0.23 | 0.23 | 85 | 1010.7 |
| 20260506214502 | 8 | 356 | 3.2 | 6.4 | 0.03 | 0.23 | 0.23 | 86 | 1010.7 |
| 20260506213955 | 8 | 6 | 1.6 | 6.4 | 0.03 | 0.23 | 0.23 | 86 | 1010.7 |
| 20260506213543 | 8 | 349 | 1.6 | 6.4 | 0.03 | 0.23 | 0.23 | 86 | 1010.6 |
| 20260506213032 | 8 | 356 | 0.0 | 4.8 | 0.03 | 0.23 | 0.23 | 86 | 1010.6 |
| 20260506212525 | 8 | 336 | 1.6 | 8.0 | 0.03 | 0.23 | 0.23 | 87 | 1010.6 |
| 20260506212017 | 8 | 6 | 1.6 | 8.0 | 0.03 | 0.23 | 0.23 | 87 | 1010.5 |
| 20260506211914 | 8 | 348 | 1.6 | 8.0 | 0.00 | 0.23 | 0.23 | 87 | 1010.6 |
| 20260506211055 | 8 | 340 | 1.6 | 4.8 | 0.00 | 0.23 | 0.23 | 87 | 1010.5 |
| 20260506210645 | 8 | 10 | 1.6 | 4.8 | 0.00 | 0.23 | 0.23 | 87 | 1010.5 |
| 20260506210135 | 8 | 346 | 1.6 | 6.4 | 0.00 | 0.23 | 0.23 | 87 | 1010.5 |
| 20260506205627 | 8 | 351 | 1.6 | 6.4 | 0.00 | 0.23 | 0.23 | 87 | 1010.5 |
| 20260506205430 | 9 | 10 | 0.0 | 6.4 | 0.00 | 0.23 | 0.23 | 87 | 1010.5 |
| 20260506204923 | 9 | 332 | 0.0 | 4.8 | 0.00 | 0.23 | 0.23 | 87 | 1010.4 |
| 20260506204102 | 9 | 337 | 0.0 | 1.6 | 0.00 | 0.23 | 0.23 | 87 | 1010.5 |
| 20260506203552 | 9 | 327 | 0.0 | 4.8 | 0.00 | 0.23 | 0.23 | 87 | 1010.4 |
| 20260506203140 | 9 | 327 | 1.6 | 4.8 | 0.00 | 0.23 | 0.23 | 87 | 1010.4 |
| 20260506202633 | 9 | 349 | 1.6 | 6.4 | 0.00 | 0.23 | 0.23 | 87 | 1010.4 |
| 20260506202129 | 9 | 337 | 1.6 | 6.4 | 0.00 | 0.23 | 0.23 | 87 | 1010.4 |
| 20260506201621 | 9 | 356 | 1.6 | 6.4 | 0.00 | 0.23 | 0.23 | 87 | 1010.4 |
| 20260506201114 | 9 | 334 | 1.6 | 6.4 | 0.00 | 0.23 | 0.23 | 87 | 1010.4 |
| 20260506200606 | 9 | 327 | 1.6 | 8.0 | 0.00 | 0.23 | 0.23 | 86 | 1010.3 |
| 20260506200059 | 9 | 1 | 1.6 | 8.0 | 0.00 | 0.23 | 0.23 | 86 | 1010.3 |
| 20260506195546 | 9 | 6 | 1.6 | 6.4 | 0.00 | 0.23 | 0.23 | 87 | 1010.3 |
| 20260506195038 | 9 | 6 | 1.6 | 6.4 | 0.00 | 0.23 | 0.23 | 86 | 1010.2 |
| 20260506194626 | 9 | 341 | 0.0 | 3.2 | 0.00 | 0.23 | 0.23 | 86 | 1010.2 |
| 20260506194128 | 9 | 356 | 0.0 | 4.8 | 0.00 | 0.23 | 0.23 | 86 | 1010.1 |
| 20260506194122 | 9 | 322 | 0.0 | 4.8 | 0.00 | 0.23 | 0.23 | 86 | 1010.1 |
| 20260506193108 | 9 | 351 | 1.6 | 6.4 | 0.00 | 0.23 | 0.23 | 86 | 1010.0 |
| 20260506192602 | 9 | 319 | 1.6 | 6.4 | 0.00 | 0.23 | 0.23 | 86 | 1009.9 |
| 20260506192057 | 9 | 1 | 1.6 | 4.8 | 0.00 | 0.23 | 0.23 | 85 | 1009.9 |
| 20260506191546 | 9 | 327 | 1.6 | 6.4 | 0.00 | 0.23 | 0.23 | 85 | 1009.8 |
| 20260506191244 | 9 | 333 | 0.0 | 4.8 | 0.00 | 0.23 | 0.23 | 85 | 1009.7 |
| 20260506191044 | 9 | 334 | 1.6 | 6.4 | 0.00 | 0.23 | 0.23 | 85 | 1009.8 |
| 20260506190640 | 9 | 332 | 0.0 | 6.4 | 0.00 | 0.23 | 0.23 | 85 | 1009.7 |
| 20260506190325 | 9 | 334 | 1.6 | 4.8 | 0.00 | 0.23 | 0.23 | 85 | 1009.7 |
| 20260506185610 | 9 | 346 | 1.6 | 4.8 | 0.00 | 0.23 | 0.23 | 85 | 1009.7 |
| 20260506184559 | 9 | 325 | 1.6 | 4.8 | 0.00 | 0.23 | 0.23 | 85 | 1009.6 |
| 20260506184051 | 9 | 13 | 0.0 | 3.2 | 0.00 | 0.23 | 0.23 | 85 | 1009.5 |
| 20260506183544 | 9 | 16 | 0.0 | 6.4 | 0.00 | 0.23 | 0.23 | 85 | 1009.5 |
| 20260506183032 | 9 | 350 | 1.6 | 8.0 | 0.00 | 0.23 | 0.23 | 84 | 1009.5 |
| 20260506182618 | 9 | 6 | 1.6 | 8.0 | 0.00 | 0.23 | 0.23 | 85 | 1009.3 |
| 20260506182113 | 9 | 1 | 1.6 | 8.0 | 0.00 | 0.23 | 0.23 | 84 | 1009.2 |
| 20260506181608 | 9 | 356 | 1.6 | 8.0 | 0.00 | 0.23 | 0.23 | 85 | 1009.2 |
| 20260506181602 | 9 | 33 | 3.2 | 8.0 | 0.00 | 0.23 | 0.23 | 85 | 1009.2 |
| 20260506180833 | 9 | 6 | 0.0 | 6.4 | 0.00 | 0.23 | 0.23 | 85 | 1009.1 |
| 20260506180059 | 9 | 345 | 1.6 | 6.4 | 0.00 | 0.23 | 0.23 | 85 | 1009.0 |
| 20260506175541 | 9 | 23 | 1.6 | 4.8 | 0.00 | 0.23 | 0.23 | 85 | 1009.0 |
| 20260506175034 | 9 | 64 | 3.2 | 11.3 | 0.00 | 0.23 | 0.23 | 85 | 1008.9 |
| 20260506174835 | 9 | 6 | 4.8 | 11.3 | 0.00 | 0.23 | 0.23 | 84 | 1008.9 |
| 20260506174110 | 9 | 343 | 4.8 | 9.7 | 0.00 | 0.23 | 0.23 | 84 | 1008.9 |
| 20260506173602 | 9 | 356 | 4.8 | 9.7 | 0.00 | 0.23 | 0.23 | 84 | 1008.8 |
| 20260506173054 | 10 | 12 | 4.8 | 9.7 | 0.00 | 0.23 | 0.23 | 84 | 1008.8 |
| 20260506172551 | 10 | 348 | 3.2 | 9.7 | 0.03 | 0.23 | 0.23 | 84 | 1008.7 |
| 20260506172546 | 10 | 6 | 3.2 | 9.7 | 0.03 | 0.23 | 0.23 | 84 | 1008.7 |
| 20260506171533 | 10 | 349 | 4.8 | 12.9 | 0.03 | 0.23 | 0.23 | 84 | 1008.6 |
| 20260506171030 | 10 | 356 | 6.4 | 12.9 | 0.03 | 0.23 | 0.23 | 84 | 1008.6 |
| 20260506170524 | 10 | 15 | 6.4 | 14.5 | 0.03 | 0.23 | 0.23 | 84 | 1008.6 |
| 20260506170325 | 10 | 34 | 6.4 | 14.5 | 0.03 | 0.23 | 0.23 | 84 | 1008.5 |
| 20260506165604 | 10 | 6 | 6.4 | 11.3 | 0.03 | 0.23 | 0.23 | 83 | 1008.5 |
| 20260506165056 | 10 | 324 | 3.2 | 11.3 | 0.03 | 0.23 | 0.23 | 84 | 1008.4 |
| 20260506164547 | 10 | 39 | 3.2 | 11.3 | 0.03 | 0.23 | 0.23 | 84 | 1008.3 |
| 20260506164055 | 10 | 28 | 3.2 | 9.7 | 0.03 | 0.23 | 0.23 | 83 | 1008.4 |
| 20260506163534 | 10 | 69 | 4.8 | 9.7 | 0.03 | 0.23 | 0.23 | 83 | 1008.3 |
| 20260506163026 | 10 | 6 | 4.8 | 9.7 | 0.03 | 0.23 | 0.23 | 82 | 1008.4 |
| 20260506162529 | 10 | 356 | 4.8 | 11.3 | 0.00 | 0.20 | 0.20 | 82 | 1008.4 |
| 20260506162015 | 10 | 6 | 4.8 | 12.9 | 0.00 | 0.20 | 0.20 | 82 | 1008.3 |
| 20260506161604 | 10 | 310 | 4.8 | 12.9 | 0.00 | 0.20 | 0.20 | 81 | 1008.3 |
| 20260506161110 | 10 | 18 | 6.4 | 17.7 | 0.00 | 0.20 | 0.20 | 82 | 1008.3 |
| 20260506160552 | 10 | 324 | 8.0 | 17.7 | 0.00 | 0.20 | 0.20 | 81 | 1008.3 |
| 20260506160053 | 10 | 356 | 4.8 | 16.1 | 0.00 | 0.20 | 0.20 | 80 | 1008.3 |
| 20260506155529 | 10 | 356 | 4.8 | 11.3 | 0.00 | 0.20 | 0.20 | 80 | 1008.3 |
| 20260506155024 | 10 | 349 | 6.4 | 12.9 | 0.00 | 0.20 | 0.20 | 80 | 1008.2 |
| 20260506154516 | 10 | 1 | 6.4 | 12.9 | 0.00 | 0.20 | 0.20 | 80 | 1008.2 |
| 20260506154011 | 10 | 318 | 6.4 | 12.9 | 0.00 | 0.20 | 0.20 | 79 | 1008.2 |
| 20260506154006 | 10 | 16 | 6.4 | 12.9 | 0.00 | 0.20 | 0.20 | 80 | 1008.2 |
| 20260506152955 | 11 | 332 | 4.8 | 12.9 | 0.00 | 0.20 | 0.20 | 79 | 1008.1 |
| 20260506152647 | 10 | 347 | 6.4 | 11.3 | 0.00 | 0.20 | 0.20 | 79 | 1008.0 |
| 20260506152643 | 10 | 1 | 4.8 | 11.3 | 0.00 | 0.20 | 0.20 | 79 | 1008.0 |
| 20260506152539 | 11 | 12 | 4.8 | 9.7 | 0.00 | 0.20 | 0.20 | 80 | 1008.1 |
| 20260506151018 | 10 | 1 | 6.4 | 12.9 | 0.00 | 0.20 | 0.20 | 79 | 1008.1 |
| 20260506150509 | 10 | 327 | 4.8 | 12.9 | 0.00 | 0.20 | 0.20 | 79 | 1008.1 |
| 20260506150000 | 10 | 6 | 6.4 | 12.9 | 0.00 | 0.20 | 0.20 | 78 | 1008.1 |
| 20260506145451 | 10 | 336 | 8.0 | 14.5 | 0.00 | 0.20 | 0.20 | 78 | 1008.1 |
| 20260506144942 | 10 | 11 | 6.4 | 14.5 | 0.00 | 0.20 | 0.20 | 78 | 1008.0 |
| 20260506144532 | 10 | 6 | 4.8 | 11.3 | 0.00 | 0.20 | 0.20 | 80 | 1008.1 |
| 20260506144024 | 10 | 27 | 4.8 | 11.3 | 0.00 | 0.20 | 0.20 | 81 | 1008.0 |
| 20260506143514 | 10 | 338 | 3.2 | 9.7 | 0.00 | 0.20 | 0.20 | 83 | 1008.0 |
| 20260506143006 | 10 | 308 | 3.2 | 9.7 | 0.00 | 0.20 | 0.20 | 83 | 1008.0 |
| 20260506142459 | 10 | 290 | 3.2 | 8.0 | 0.00 | 0.20 | 0.20 | 83 | 1008.0 |
| 20260506141949 | 10 | 338 | 3.2 | 9.7 | 0.00 | 0.20 | 0.20 | 83 | 1008.0 |
| 20260506141447 | 10 | 339 | 3.2 | 8.0 | 0.00 | 0.20 | 0.20 | 83 | 1008.0 |
| 20260506141443 | 10 | 338 | 3.2 | 9.7 | 0.00 | 0.20 | 0.20 | 84 | 1008.0 |
| 20260506140428 | 10 | 319 | 3.2 | 8.0 | 0.00 | 0.20 | 0.20 | 84 | 1008.0 |
| 20260506140019 | 10 | 31 | 4.8 | 8.0 | 0.00 | 0.20 | 0.20 | 85 | 1008.0 |
| 20260506135510 | 10 | 334 | 4.8 | 8.0 | 0.00 | 0.20 | 0.20 | 85 | 1008.0 |
| 20260506135002 | 10 | 1 | 4.8 | 9.7 | 0.00 | 0.20 | 0.20 | 85 | 1008.0 |
| 20260506134451 | 10 | 350 | 4.8 | 9.7 | 0.03 | 0.20 | 0.20 | 84 | 1008.0 |
| 20260506133942 | 10 | 334 | 3.2 | 9.7 | 0.03 | 0.20 | 0.20 | 85 | 1008.0 |
| 20260506133435 | 10 | 345 | 4.8 | 11.3 | 0.03 | 0.20 | 0.20 | 85 | 1008.0 |
| 20260506132925 | 10 | 327 | 4.8 | 11.3 | 0.03 | 0.20 | 0.20 | 84 | 1008.0 |
| 20260506132423 | 10 | 345 | 6.4 | 11.3 | 0.03 | 0.20 | 0.20 | 83 | 1007.9 |
| 20260506132418 | 10 | 324 | 4.8 | 8.0 | 0.03 | 0.20 | 0.20 | 84 | 1008.0 |
| 20260506131457 | 10 | 6 | 4.8 | 11.3 | 0.03 | 0.20 | 0.20 | 83 | 1007.9 |
| 20260506130949 | 10 | 356 | 4.8 | 12.9 | 0.03 | 0.20 | 0.20 | 85 | 1007.8 |
| 20260506130441 | 10 | 302 | 6.4 | 12.9 | 0.03 | 0.20 | 0.20 | 84 | 1007.8 |
| 20260506125936 | 10 | 334 | 6.4 | 12.9 | 0.03 | 0.20 | 0.20 | 84 | 1007.8 |
| 20260506125433 | 10 | 16 | 6.4 | 9.7 | 0.00 | 0.18 | 0.18 | 85 | 1007.8 |
| 20260506125428 | 10 | 321 | 4.8 | 11.3 | 0.03 | 0.20 | 0.20 | 85 | 1007.8 |
| 20260506124922 | 10 | 19 | 6.4 | 11.3 | 0.03 | 0.20 | 0.20 | 85 | 1007.8 |
| 20260506124618 | 10 | 356 | 6.4 | 12.9 | 0.00 | 0.18 | 0.18 | 84 | 1007.8 |
| 20260506123357 | 10 | 324 | 6.4 | 17.7 | 0.00 | 0.18 | 0.18 | 83 | 1007.7 |
| 20260506122948 | 10 | 45 | 6.4 | 17.7 | 0.00 | 0.18 | 0.18 | 83 | 1007.7 |
| 20260506122435 | 10 | 351 | 8.0 | 16.1 | 0.00 | 0.18 | 0.18 | 83 | 1007.6 |
| 20260506121930 | 10 | 1 | 6.4 | 12.9 | 0.00 | 0.18 | 0.18 | 84 | 1007.6 |
| 20260506121420 | 10 | 356 | 4.8 | 11.3 | 0.00 | 0.18 | 0.18 | 84 | 1007.5 |
| 20260506120911 | 10 | 345 | 6.4 | 12.9 | 0.00 | 0.18 | 0.18 | 83 | 1007.6 |
| 20260506120408 | 10 | 16 | 6.4 | 12.9 | 0.00 | 0.18 | 0.18 | 85 | 1007.5 |
| 20260506120404 | 10 | 343 | 6.4 | 19.3 | 0.00 | 0.18 | 0.18 | 84 | 1007.6 |
| 20260506115854 | 10 | 356 | 6.4 | 19.3 | 0.00 | 0.18 | 0.18 | 83 | 1007.5 |
| 20260506114837 | 10 | 11 | 6.4 | 12.9 | 0.00 | 0.18 | 0.18 | 85 | 1007.5 |
| 20260506114431 | 10 | 25 | 6.4 | 14.5 | 0.00 | 0.18 | 0.18 | 87 | 1007.5 |
| 20260506114426 | 10 | 27 | 6.4 | 12.9 | 0.00 | 0.18 | 0.18 | 85 | 1007.5 |
| 20260506113918 | 10 | 43 | 6.4 | 12.9 | 0.00 | 0.18 | 0.18 | 86 | 1007.5 |
| 20260506112906 | 10 | 1 | 6.4 | 14.5 | 0.00 | 0.18 | 0.18 | 87 | 1007.4 |
| 20260506112400 | 10 | 321 | 6.4 | 17.7 | 0.00 | 0.18 | 0.18 | 88 | 1007.4 |
| 20260506112356 | 10 | 18 | 4.8 | 12.9 | 0.00 | 0.18 | 0.18 | 87 | 1007.4 |
| 20260506111341 | 10 | 16 | 4.8 | 17.7 | 0.00 | 0.18 | 0.18 | 88 | 1007.4 |
| 20260506110834 | 10 | 328 | 3.2 | 12.9 | 0.00 | 0.18 | 0.18 | 88 | 1007.3 |
| 20260506110324 | 10 | 326 | 3.2 | 9.7 | 0.03 | 0.18 | 0.18 | 89 | 1007.2 |
| 20260506105822 | 10 | 30 | 4.8 | 12.9 | 0.03 | 0.18 | 0.18 | 89 | 1007.3 |
| 20260506105412 | 10 | 10 | 6.4 | 12.9 | 0.03 | 0.18 | 0.18 | 89 | 1007.3 |
| 20260506104909 | 10 | 6 | 3.2 | 19.3 | 0.03 | 0.18 | 0.18 | 90 | 1007.3 |
| 20260506104905 | 10 | 301 | 4.8 | 12.9 | 0.03 | 0.18 | 0.18 | 89 | 1007.3 |
| 20260506103852 | 9 | 26 | 3.2 | 19.3 | 0.03 | 0.18 | 0.18 | 90 | 1007.3 |
| 20260506103343 | 9 | 14 | 6.4 | 17.7 | 0.03 | 0.18 | 0.18 | 89 | 1007.3 |
| 20260506102837 | 9 | 344 | 6.4 | 17.7 | 0.03 | 0.18 | 0.18 | 89 | 1007.3 |
| 20260506102327 | 9 | 10 | 8.0 | 20.9 | 0.03 | 0.18 | 0.18 | 89 | 1007.2 |
| 20260506101819 | 9 | 329 | 8.0 | 20.9 | 0.03 | 0.18 | 0.18 | 90 | 1007.2 |
| 20260506101319 | 10 | 11 | 6.4 | 16.1 | 0.03 | 0.18 | 0.18 | 90 | 1007.1 |
| 20260506100815 | 10 | 1 | 6.4 | 19.3 | 0.03 | 0.18 | 0.18 | 90 | 1007.1 |
| 20260506100407 | 9 | 6 | 8.0 | 19.3 | 0.00 | 0.15 | 0.15 | 90 | 1007.0 |
| 20260506095853 | 9 | 23 | 8.0 | 19.3 | 0.00 | 0.15 | 0.15 | 89 | 1007.0 |
| 20260506095349 | 9 | 356 | 4.8 | 12.9 | 0.00 | 0.15 | 0.15 | 90 | 1006.8 |
| 20260506095345 | 9 | 333 | 8.0 | 16.1 | 0.00 | 0.15 | 0.15 | 90 | 1007.0 |
| 20260506094837 | 9 | 328 | 6.4 | 14.5 | 0.00 | 0.15 | 0.15 | 90 | 1007.0 |
| 20260506093820 | 10 | 346 | 6.4 | 16.1 | 0.00 | 0.15 | 0.15 | 91 | 1006.8 |
| 20260506093815 | 10 | 343 | 6.4 | 16.1 | 0.00 | 0.15 | 0.15 | 90 | 1006.8 |
| 20260506093307 | 10 | 6 | 6.4 | 12.9 | 0.00 | 0.15 | 0.15 | 92 | 1006.8 |
| 20260506092904 | 10 | 319 | 6.4 | 12.9 | 0.00 | 0.15 | 0.15 | 91 | 1006.8 |
| 20260506091840 | 10 | 295 | 6.4 | 17.7 | 0.00 | 0.15 | 0.15 | 92 | 1006.7 |
| 20260506091333 | 10 | 319 | 6.4 | 17.7 | 0.00 | 0.15 | 0.15 | 92 | 1006.6 |
| 20260506090822 | 10 | 356 | 4.8 | 11.3 | 0.00 | 0.15 | 0.15 | 92 | 1006.6 |
| 20260506090315 | 10 | 345 | 4.8 | 9.7 | 0.00 | 0.15 | 0.15 | 93 | 1006.6 |
| 20260506085812 | 9 | 345 | 6.4 | 14.5 | 0.00 | 0.15 | 0.15 | 93 | 1006.6 |
| 20260506085307 | 9 | 307 | 6.4 | 16.1 | 0.03 | 0.15 | 0.15 | 93 | 1006.5 |
| 20260506085305 | 9 | 351 | 6.4 | 16.1 | 0.03 | 0.15 | 0.15 | 93 | 1006.5 |
| 20260506084353 | 9 | 1 | 6.4 | 14.5 | 0.03 | 0.15 | 0.15 | 93 | 1006.5 |
| 20260506083845 | 9 | 1 | 8.0 | 19.3 | 0.03 | 0.15 | 0.15 | 93 | 1006.4 |
| 20260506083334 | 9 | 341 | 8.0 | 19.3 | 0.03 | 0.15 | 0.15 | 93 | 1006.4 |
| 20260506083227 | 9 | 33 | 6.4 | 14.5 | 0.03 | 0.15 | 0.15 | 94 | 1006.4 |
| 20260506082310 | 9 | 338 | 6.4 | 14.5 | 0.03 | 0.15 | 0.15 | 94 | 1006.3 |
| 20260506081803 | 9 | 296 | 6.4 | 17.7 | 0.03 | 0.15 | 0.15 | 94 | 1006.3 |
| 20260506081304 | 9 | 344 | 8.0 | 17.7 | 0.03 | 0.15 | 0.15 | 94 | 1006.3 |
| 20260506080857 | 9 | 1 | 8.0 | 14.5 | 0.03 | 0.15 | 0.15 | 94 | 1006.3 |
| 20260506080347 | 9 | 6 | 8.0 | 14.5 | 0.03 | 0.15 | 0.15 | 94 | 1006.3 |
| 20260506073352 | 8 | 343 | 4.8 | 12.9 | 0.00 | 0.15 | 0.15 | 95 | 1006.2 |
| 20260506072844 | 8 | 319 | 4.8 | 12.9 | 0.00 | 0.15 | 0.15 | 94 | 1006.2 |
| 20260506072334 | 8 | 356 | 4.8 | 12.9 | 0.00 | 0.15 | 0.15 | 94 | 1006.2 |
| 20260506071825 | 8 | 338 | 6.4 | 11.3 | 0.00 | 0.15 | 0.15 | 95 | 1006.1 |
| 20260506071320 | 8 | 341 | 6.4 | 14.5 | 0.00 | 0.15 | 0.15 | 95 | 1006.1 |
| 20260506070810 | 8 | 349 | 4.8 | 14.5 | 0.00 | 0.15 | 0.15 | 95 | 1006.2 |
| 20260506070303 | 8 | 356 | 4.8 | 16.1 | 0.00 | 0.15 | 0.15 | 95 | 1006.2 |
| 20260506062256 | 8 | 14 | 6.4 | 12.9 | 0.03 | 0.15 | 0.15 | 95 | 1005.8 |
| 20260506061747 | 8 | 6 | 6.4 | 12.9 | 0.03 | 0.15 | 0.15 | 95 | 1005.8 |
| 20260506061239 | 8 | 6 | 6.4 | 16.1 | 0.03 | 0.15 | 0.15 | 95 | 1005.8 |